Regional Weather Roundup
Issued by NWS

Home | Current Version | Previous Version | Text Only | Print | Product List | Glossary On
Versions: 1 2 3 4 5 6 7 8 9 10 11 12 13 14 15 16 17 18 19 20 21 22 23 24 25 26 27 28 29 30 31 32 33 34 35 36 37 38 39 40 41 42 43 44 45 46 47 48 49 50
000
ASUS43 KLMK 311510
RWRKY
KENTUCKY REGIONAL WEATHER ROUNDUP
NATIONAL WEATHER SERVICE LOUISVILLE KY
1000 AM EST SAT JAN 31 2015

NOTE "FAIR" INDICATES FEW OR NO CLOUDS BELOW 12,000 FEET
WITH NO SIGNIFICANT WEATHER AND/OR OBSTRUCTIONS TO VISIBILITY.

KYZ001>023-026-027-061>063-070>075-311600-
WESTERN AND SOUTH CENTRAL KENTUCKY

CITY           SKY/WX    TMP DP  RH WIND       PRES   REMARKS
PADUCAH        CLOUDY    33  24  69 CALM      30.40R
HENDERSON      PTSUNNY   32  25  74 S6        30.40R WCI  26
OWENSBORO      CLOUDY    30  24  78 SE5       30.41R WCI  25
HOPKINSVILLE   PTSUNNY   31  24  73 SW5       30.41R WCI  27
BOWLING GREEN  PTSUNNY   28  22  78 CALM      30.42R
GLASGOW        PTSUNNY   28  23  82 CALM      30.41R
$$

KYZ024-025-028>034-038-045-046-053-311600-
NORTH CENTRAL KENTUCKY

CITY           SKY/WX    TMP DP  RH WIND       PRES   REMARKS
LOUISVILLE/SDF CLOUDY    28  20  71 CALM      30.40S
LOUISVILLE/LOU MOSUNNY   29  19  66 S3        30.41S
FORT KNOX      PTSUNNY   28  20  72 S6        30.38R WCI  22
$$

KYZ035>037-039>044-047>052-055>060-089>105-311600-
NORTHEAST KENTUCKY

CITY           SKY/WX    TMP DP  RH WIND       PRES   REMARKS
LEXINGTON      SUNNY     28  20  71 S5        30.39R WCI  23
COVINGTON      PTSUNNY   27  17  66 S8        30.37S WCI  19
FRANKFORT      SUNNY     27  20  75 CALM      30.39R
$$

KYZ054-064>069-076>088-106>120-311600-
SOUTHEAST KENTUCKY

CITY           SKY/WX    TMP DP  RH WIND       PRES   REMARKS
JACKSON        SUNNY     25  17  72 SW3       30.38R
LONDON         PTSUNNY   27  18  69 CALM      30.39R
SOMERSET       SUNNY     28  21  74 CALM      30.42S
MIDDLESBORO    MOSUNNY   26  19  74 CALM      30.41S
MONTICELLO     MOSUNNY   32  20  61 CALM      30.42S
$$




USA.gov is the U.S. government's official web portal to all federal, state and local government web resources and services.